Location: Paris
(48.6709°N, 2.3750°E)
Time: 07:23:42
(UTC+02:00)

Gurwin Techsat 1B - Visible Passes

Search period start: 26 June 2022 00:00
Search period end: 06 July 2022 00:00
Orbit: 811 x 814 km, 98.8° (Epoch: 25 June)

Date Brightness Start Highest point End Pass type
(mag) Time Alt. Az. Time Alt. Az. Time Alt. Az.
26 Jun 9.1 04:16:22 10° NNE 04:21:39 60° ESE 04:26:53 10° S visible
27 Jun 9.7 03:53:36 10° NNE 03:58:35 39° E 04:03:32 10° SSE visible
28 Jun 10.3 03:31:03 10° NE 03:35:27 26° E 03:39:50 10° SSE visible
29 Jun 10.8 03:08:52 10° NE 03:12:14 17° E 03:15:35 10° SE visible
29 Jun 8.7 04:47:26 10° NNE 04:52:47 79° WNW 04:58:05 10° SSW visible
30 Jun 11.2 02:48:09 10° ENE 02:48:56 10° E 02:49:44 10° E visible
30 Jun 8.9 04:24:30 10° NNE 04:29:50 70° ESE 04:35:07 10° S visible
01 Jul 9.5 04:01:41 10° NNE 04:06:49 45° E 04:11:53 10° S visible
02 Jul 10.1 03:39:03 10° NE 03:43:42 30° E 03:48:18 10° SSE visible
03 Jul 10.7 03:16:43 10° NE 03:20:31 19° E 03:24:17 10° SE visible
03 Jul 8.7 04:55:38 10° N 05:00:56 68° WNW 05:06:12 10° SSW visible
04 Jul 11.0 02:55:05 10° ENE 02:57:14 12° E 02:59:22 10° ESE visible
04 Jul 8.7 04:32:39 10° NNE 04:38:01 80° ESE 04:43:20 10° SSW visible
05 Jul 9.2 04:09:48 10° NNE 04:15:01 52° E 04:20:11 10° S visible
